レモン彗星

P/2017 W1 ( Lemmon )

English version
Home page
Updated on November 23, 2017

---------------------------------------------------------------------

・ プロフィール

検出日 2017年11月19日
検出光度 20.3等
検出者 Erwin Schwab and Pablo Ruiz (European Space Agency's Optical Ground Station, Tenerife, Spain)

・ 軌道要素

Epoch 2018 Mar. 23.0 TT = JDT 2458200.5
T 2018 Mar. 22.92426 TT                                 MPCW
q   1.5078679            (2000.0)            P               Q
n   0.15691723     Peri.  315.28158     -0.57671018     -0.81685865
a   3.4042567      Node   169.91712     +0.76760241     -0.54690050
e   0.5570640      Incl.    3.97540     +0.27962815     -0.18341699
P   6.28
From 63 observations 2011 Nov. 3-2017 Nov. 19, mean residual 0".5.

・ 光度変化

        m1 = 17.0 + 5 logΔ + 10.0 log r

---------------------------------------------------------------------

軌道要素はM.P.E.C. 2017-W73に掲載されたものです。
光度グラフはComet for Windowsで作成したものです。

---------------------------------------------------------------------

Copyright(C) Seiichi Yoshida (comet@aerith.net). All rights reserved.